ASH425 KCRP-KIAH

Flight info

Callsign ASH425
Flight time 0h 37m
Altitude 27000
Route DCT CRP HTOWN3
Aircraft E170/M-SDE3GILORVW/S

Departure

Time 2026-04-23 16:28
Airport Corpus Christi International Airport (KCRP)

Arrival

Time 2026-04-23 17:05
Airport George Bush Intercontinental Airport (KIAH)
Time Latitude Longitude Altitude Speed Heading
2026-04-23 16:04 27.77338 -97.50283 50 ft 0 kts 72°
2026-04-23 16:20 27.77338 -97.50284 50 ft 1 kts 72°
2026-04-23 16:20 27.77332 -97.50307 50 ft 3 kts 82°
2026-04-23 16:20 27.77332 -97.50332 50 ft 3 kts 114°
2026-04-23 16:21 27.77343 -97.50346 46 ft 2 kts 178°
2026-04-23 16:21 27.77345 -97.50346 46 ft 0 kts 180°
2026-04-23 16:23 27.77335 -97.50346 47 ft 6 kts 180°
2026-04-23 16:23 27.77277 -97.50346 48 ft 10 kts 188°
2026-04-23 16:24 27.77210 -97.50401 47 ft 13 kts 223°
2026-04-23 16:24 27.77166 -97.50455 48 ft 9 kts 246°
2026-04-23 16:24 27.77192 -97.50516 49 ft 10 kts 316°
2026-04-23 16:24 27.77253 -97.50582 47 ft 13 kts 316°
2026-04-23 16:25 27.77320 -97.50656 51 ft 15 kts 315°
2026-04-23 16:25 27.77399 -97.50743 52 ft 17 kts 316°
2026-04-23 16:25 27.77486 -97.50837 53 ft 18 kts 315°
2026-04-23 16:25 27.77573 -97.50931 51 ft 16 kts 316°
2026-04-23 16:26 27.77660 -97.51027 51 ft 19 kts 316°
2026-04-23 16:26 27.77709 -97.51085 51 ft 9 kts 298°
2026-04-23 16:26 27.77715 -97.51168 49 ft 12 kts 270°
2026-04-23 16:26 27.77716 -97.51250 48 ft 12 kts 270°
2026-04-23 16:27 27.77706 -97.51310 45 ft 6 kts 210°
2026-04-23 16:27 27.77670 -97.51302 47 ft 4 kts 138°
2026-04-23 16:27 27.77643 -97.51274 48 ft 10 kts 136°
2026-04-23 16:27 27.77390 -97.50999 52 ft 97 kts 136°
2026-04-23 16:28 27.76715 -97.50268 329 ft 155 kts 138°
2026-04-23 16:28 27.75906 -97.49402 1427 ft 166 kts 137°
2026-04-23 16:28 27.75005 -97.48416 2001 ft 207 kts 139°
2026-04-23 16:28 27.73919 -97.47239 2848 ft 216 kts 138°
2026-04-23 16:29 27.72824 -97.46052 2831 ft 223 kts 138°
2026-04-23 16:29 27.71692 -97.44824 3114 ft 226 kts 138°
2026-04-23 16:29 27.70535 -97.43575 4128 ft 237 kts 138°
2026-04-23 16:29 27.69312 -97.42268 5121 ft 247 kts 139°
2026-04-23 16:30 27.68158 -97.40793 6102 ft 259 kts 122°
2026-04-23 16:30 27.67711 -97.38762 6857 ft 280 kts 90°
2026-04-23 16:30 27.68262 -97.36627 7758 ft 291 kts 59°
2026-04-23 16:30 27.69669 -97.34976 8679 ft 297 kts 32°
2026-04-23 16:31 27.71515 -97.33935 9604 ft 298 kts 21°
2026-04-23 16:31 27.73421 -97.33068 10423 ft 300 kts 19°
2026-04-23 16:31 27.75398 -97.32221 11054 ft 311 kts 18°
2026-04-23 16:31 27.77442 -97.31261 11543 ft 325 kts 22°
2026-04-23 16:32 27.79507 -97.30172 12296 ft 329 kts 22°
2026-04-23 16:32 27.81590 -97.29057 13141 ft 332 kts 22°
2026-04-23 16:32 27.83688 -97.27928 13991 ft 336 kts 22°
2026-04-23 16:32 27.85814 -97.26786 14767 ft 340 kts 22°
2026-04-23 16:33 27.87967 -97.25630 15639 ft 344 kts 22°
2026-04-23 16:33 27.89419 -97.24849 16033 ft 352 kts 22°
2026-04-23 16:33 27.91665 -97.23642 16573 ft 362 kts 22°
2026-04-23 16:33 27.93952 -97.22409 17298 ft 366 kts 22°
2026-04-23 16:34 27.96269 -97.21163 18007 ft 371 kts 21°
2026-04-23 16:34 27.98611 -97.19902 18644 ft 374 kts 21°
2026-04-23 16:34 28.00971 -97.18631 19324 ft 377 kts 21°
2026-04-23 16:34 28.03351 -97.17348 20016 ft 381 kts 21°
2026-04-23 16:35 28.05756 -97.16053 20718 ft 385 kts 21°
2026-04-23 16:35 28.08185 -97.14742 21375 ft 389 kts 21°
2026-04-23 16:35 28.10637 -97.13419 22033 ft 392 kts 21°
2026-04-23 16:35 28.13114 -97.12082 22679 ft 396 kts 21°
2026-04-23 16:36 28.15613 -97.10732 23292 ft 400 kts 21°
2026-04-23 16:36 28.18133 -97.09369 23828 ft 403 kts 21°
2026-04-23 16:36 28.20670 -97.07997 24346 ft 406 kts 21°
2026-04-23 16:36 28.23191 -97.06633 24857 ft 408 kts 21°
2026-04-23 16:37 28.25793 -97.05225 25365 ft 411 kts 21°
2026-04-23 16:37 28.28349 -97.03841 25846 ft 414 kts 21°
2026-04-23 16:37 28.30952 -97.02430 26312 ft 416 kts 21°
2026-04-23 16:37 28.33576 -97.01007 26750 ft 418 kts 21°
2026-04-23 16:38 28.36122 -96.99622 26855 ft 396 kts 20°
2026-04-23 16:38 28.38646 -96.98260 26906 ft 409 kts 20°
2026-04-23 16:38 28.41251 -96.96845 26945 ft 421 kts 21°
2026-04-23 16:38 28.43899 -96.95403 26953 ft 421 kts 21°
2026-04-23 16:39 28.46494 -96.93826 26943 ft 424 kts 27°
2026-04-23 16:39 28.48880 -96.91826 26950 ft 428 kts 34°
2026-04-23 16:39 28.51229 -96.89736 26964 ft 428 kts 34°
2026-04-23 16:39 28.53560 -96.87625 26959 ft 428 kts 34°
2026-04-23 16:40 28.55888 -96.85511 26967 ft 428 kts 34°
2026-04-23 16:40 28.58209 -96.83402 26956 ft 428 kts 34°
2026-04-23 16:40 28.60539 -96.81283 26979 ft 428 kts 34°
2026-04-23 16:40 28.62880 -96.79155 27001 ft 436 kts 34°
2026-04-23 16:41 28.65272 -96.76979 27010 ft 441 kts 34°
2026-04-23 16:41 28.67670 -96.74795 26872 ft 442 kts 34°
2026-04-23 16:41 28.70060 -96.72617 26497 ft 440 kts 35°
2026-04-23 16:41 28.72446 -96.70442 26128 ft 440 kts 35°
2026-04-23 16:42 28.74843 -96.68255 25768 ft 441 kts 35°
2026-04-23 16:42 28.77240 -96.66066 25421 ft 442 kts 35°
2026-04-23 16:42 28.79663 -96.63898 25073 ft 442 kts 32°
2026-04-23 16:42 28.82276 -96.62074 24634 ft 440 kts 25°
2026-04-23 16:43 28.84999 -96.60481 24176 ft 439 kts 20°
2026-04-23 16:43 28.87834 -96.59196 23720 ft 439 kts 18°
2026-04-23 16:43 28.90691 -96.57956 23224 ft 439 kts 17°
2026-04-23 16:43 28.93517 -96.56753 22702 ft 438 kts 17°
2026-04-23 16:44 28.96319 -96.55563 22162 ft 421 kts 17°
2026-04-23 16:44 28.99025 -96.54416 21628 ft 411 kts 17°
2026-04-23 16:44 29.01706 -96.53280 21125 ft 412 kts 17°
2026-04-23 16:44 29.04389 -96.52139 20629 ft 410 kts 17°
2026-04-23 16:45 29.07054 -96.51006 20142 ft 407 kts 17°
2026-04-23 16:45 29.09696 -96.49882 19680 ft 404 kts 17°
2026-04-23 16:45 29.12323 -96.48763 19224 ft 401 kts 17°
2026-04-23 16:45 29.14929 -96.47653 18787 ft 399 kts 17°
2026-04-23 16:46 29.17526 -96.46546 18346 ft 397 kts 17°
2026-04-23 16:46 29.20102 -96.45447 17855 ft 394 kts 17°
2026-04-23 16:46 29.22641 -96.44362 17335 ft 383 kts 17°
2026-04-23 16:46 29.25105 -96.43311 16812 ft 371 kts 17°
2026-04-23 16:47 29.27495 -96.42295 16302 ft 361 kts 17°
2026-04-23 16:47 29.29791 -96.41289 15803 ft 355 kts 20°
2026-04-23 16:47 29.32034 -96.40084 15315 ft 357 kts 22°
2026-04-23 16:47 29.34268 -96.38840 14850 ft 357 kts 23°
2026-04-23 16:48 29.36485 -96.37590 14423 ft 354 kts 23°
2026-04-23 16:48 29.38689 -96.36345 14013 ft 352 kts 23°
2026-04-23 16:48 29.40886 -96.35104 13592 ft 350 kts 24°
2026-04-23 16:48 29.43060 -96.33864 13155 ft 348 kts 26°
2026-04-23 16:49 29.44417 -96.32892 13050 ft 347 kts 33°
2026-04-23 16:49 29.46885 -96.30585 12986 ft 338 kts 40°
2026-04-23 16:49 29.48592 -96.28722 13000 ft 340 kts 44°
2026-04-23 16:49 29.50114 -96.26634 13008 ft 342 kts 50°
2026-04-23 16:50 29.51578 -96.24490 13007 ft 342 kts 50°
2026-04-23 16:50 29.53053 -96.22348 12987 ft 341 kts 49°
2026-04-23 16:50 29.54573 -96.20254 12972 ft 341 kts 47°
2026-04-23 16:50 29.56188 -96.18274 12966 ft 338 kts 42°
2026-04-23 16:51 29.57840 -96.16449 12800 ft 323 kts 41°
2026-04-23 16:51 29.59455 -96.14697 12344 ft 315 kts 41°
2026-04-23 16:51 29.61040 -96.12987 11821 ft 312 kts 41°
2026-04-23 16:51 29.62616 -96.11285 11317 ft 310 kts 41°
2026-04-23 16:52 29.64187 -96.09587 10827 ft 309 kts 42°
2026-04-23 16:52 29.65746 -96.07898 10352 ft 305 kts 42°
2026-04-23 16:52 29.67274 -96.06244 9929 ft 299 kts 42°
2026-04-23 16:52 29.68764 -96.04631 9470 ft 296 kts 42°
2026-04-23 16:53 29.70275 -96.03049 9068 ft 290 kts 40°
2026-04-23 16:53 29.71779 -96.01540 8652 ft 284 kts 40°
2026-04-23 16:53 29.73191 -95.99977 8221 ft 280 kts 45°
2026-04-23 16:53 29.74524 -95.98371 7813 ft 275 kts 46°
2026-04-23 16:54 29.75813 -95.96787 7450 ft 270 kts 47°
2026-04-23 16:54 29.77080 -95.95227 7066 ft 263 kts 47°
2026-04-23 16:54 29.78315 -95.93711 6695 ft 256 kts 47°
2026-04-23 16:54 29.79526 -95.92233 6341 ft 252 kts 47°
2026-04-23 16:55 29.80730 -95.90773 6015 ft 253 kts 47°
2026-04-23 16:55 29.81951 -95.89303 5705 ft 255 kts 47°
2026-04-23 16:55 29.83185 -95.87830 5403 ft 256 kts 47°
2026-04-23 16:55 29.84427 -95.86352 5196 ft 255 kts 47°
2026-04-23 16:56 29.85649 -95.84905 5155 ft 249 kts 47°
2026-04-23 16:56 29.86843 -95.83489 5103 ft 245 kts 47°
2026-04-23 16:56 29.88037 -95.82076 4957 ft 247 kts 47°
2026-04-23 16:56 29.89214 -95.80687 4696 ft 238 kts 47°
2026-04-23 16:57 29.90363 -95.79338 4558 ft 236 kts 47°
2026-04-23 16:57 29.91509 -95.77999 4465 ft 233 kts 47°
2026-04-23 16:57 29.92635 -95.76685 4336 ft 234 kts 47°
2026-04-23 16:57 29.93780 -95.75358 4168 ft 232 kts 47°
2026-04-23 16:58 29.94895 -95.74046 4073 ft 228 kts 49°
2026-04-23 16:58 29.95904 -95.72626 4034 ft 230 kts 55°
2026-04-23 16:58 29.96865 -95.71144 3992 ft 229 kts 56°
2026-04-23 16:58 29.97560 -95.69512 4078 ft 225 kts 79°
2026-04-23 16:59 29.97666 -95.67750 4233 ft 217 kts 94°
2026-04-23 16:59 29.97654 -95.65966 4257 ft 224 kts 91°
2026-04-23 16:59 29.97701 -95.64199 4145 ft 215 kts 91°
2026-04-23 16:59 29.97697 -95.62488 4052 ft 212 kts 92°
2026-04-23 17:00 29.97699 -95.60780 4016 ft 214 kts 92°
2026-04-23 17:00 29.97710 -95.59066 4001 ft 213 kts 92°
2026-04-23 17:00 29.97713 -95.57349 3980 ft 213 kts 92°
2026-04-23 17:00 29.97717 -95.55622 3834 ft 215 kts 92°
2026-04-23 17:01 29.97723 -95.53906 3531 ft 212 kts 92°
2026-04-23 17:01 29.97726 -95.52233 3222 ft 209 kts 92°
2026-04-23 17:01 29.97731 -95.50562 2943 ft 206 kts 92°
2026-04-23 17:01 29.97734 -95.48938 2692 ft 197 kts 92°
2026-04-23 17:02 29.97736 -95.47914 2579 ft 191 kts 92°
2026-04-23 17:02 29.97741 -95.45883 2184 ft 187 kts 92°
2026-04-23 17:02 29.97744 -95.44438 1854 ft 171 kts 92°
2026-04-23 17:02 29.97744 -95.43102 1605 ft 163 kts 92°
2026-04-23 17:03 29.97748 -95.41871 1416 ft 144 kts 92°
2026-04-23 17:03 29.97749 -95.40765 1225 ft 133 kts 91°
2026-04-23 17:03 29.97754 -95.39696 1085 ft 133 kts 93°
2026-04-23 17:03 29.97761 -95.38650 896 ft 129 kts 94°
2026-04-23 17:04 29.97763 -95.37598 781 ft 135 kts 94°
2026-04-23 17:04 29.97760 -95.36509 635 ft 135 kts 93°
2026-04-23 17:04 29.97765 -95.35439 476 ft 133 kts 94°
2026-04-23 17:04 29.97759 -95.34387 315 ft 132 kts 91°
2026-04-23 17:05 29.97759 -95.33326 147 ft 131 kts 92°
2026-04-23 17:05 29.97759 -95.32369 103 ft 101 kts 89°
2026-04-23 17:05 29.97760 -95.31812 105 ft 37 kts 90°
2026-04-23 17:05 29.97770 -95.31579 106 ft 20 kts 80°
2026-04-23 17:06 29.97813 -95.31425 106 ft 21 kts 63°
2026-04-23 17:06 29.97868 -95.31315 105 ft 17 kts 60°
2026-04-23 17:06 29.97941 -95.31282 105 ft 13 kts 341°
2026-04-23 17:06 29.97970 -95.31363 105 ft 14 kts 270°
2026-04-23 17:07 29.97970 -95.31503 105 ft 19 kts 269°
2026-04-23 17:07 29.97969 -95.31664 105 ft 21 kts 270°
2026-04-23 17:07 29.97969 -95.31668 105 ft 21 kts 270°